Regional Weather Roundup
Issued by NWS Bismarck, ND

Home | Current Version | Previous Version | Text Only | Print | Product List | Glossary On
Versions: 1 2 3 4 5 6 7 8 9 10 11 12 13 14 15 16 17 18 19 20 21 22 23 24 25 26 27 28 29 30 31 32 33 34 35 36 37 38 39 40 41 42 43 44 45 46 47 48 49 50
000
ASUS43 KBIS 271759
RWRBIS

NWR BROADCAST TEXT
NATIONAL WEATHER SERVICE BISMARCK ND
100 PM CDT WED AUG 27 2014

NOTE: "FAIR" INDICATES FEW OR NO CLOUDS BELOW 12,000 FEET WITH NO
SIGNIFICANT WEATHER AND/OR OBSTRUCTIONS TO VISIBILITY.


CITY           SKY/WX    TMP DP  RH WIND       PRES   REMARKS
WILLISTON      SUNNY     77  58  51 SE8       30.06F
MINOT          FAIR      72  52  49 S12       30.10F
MINOT AFB      NOT AVBL
BISMARCK       SUNNY     71  58  63 S6        30.14F
DICKINSON      NOT AVBL
GARRISON         N/A     70  59  68 S5        30.12F
HETTINGER ARPT SUNNY     72  57  59 SE9       30.13F
JAMESTOWN      NOT AVBL
CARRINGTON     FAIR      68  59  73 SE12      30.16F
CROSBY         FAIR      77  54  44 S13       30.05F
HARVEY         FAIR      73  55  53 S9G17     30.14F
LINTON         FAIR      73  61  64 SE9       30.14F
RUGBY          FAIR      68  57  68 SW9       30.14S
WATFORD CITY   FAIR      75  55  50 S10G17    30.06F
$$

CITY           SKY/WX    TMP DP  RH WIND       PRES   REMARKS
GRAND FORKS    FAIR      71  53  52 S12       30.16F
GRAND FORKS AF NOT AVBL
DEVILS LAKE    FAIR      66  52  59 S6        30.15S
FARGO          FAIR      71  57  61 VRB3      30.17F
CAVALIER       FAIR      72  54  53 SW8       30.15S
GRAFTON        FAIR      72  50  46 SW6       30.16S
GWINNER        PTCLDY    72  59  64 SE8       30.18F
LANGDON        FAIR      72  50  46 SW14      30.16S
$$

CITY           SKY/WX    TMP DP  RH WIND       PRES   REMARKS
ABERDEEN       MOSUNNY   69  59  70 SE10      30.15F
MOBRIDGE       CLOUDY    71  61  70 SE15      30.10F
RAPID CITY     MOSUNNY   71  60  68 NE5       30.14S
GLASGOW        SUNNY     77  56  48 S7        29.99F
SIDNEY         SUNNY     75  59  57 S10       30.06F
WOLF POINT     SUNNY     82  55  39 S6        30.00F
GLENDIVE       SUNNY     75  61  60 SE8       30.07F
MILES CITY     SUNNY     79  53  40 SE9       30.05F
BAKER          SUNNY     76  53  44 S10       30.11F
$$

CITY           SKY/WX    TMP DP  RH WIND       PRES   REMARKS
BILLINGS       MOSUNNY   76  53  44 SW8       30.09F
GREAT FALLS    SUNNY     77  44  30 W9        30.06F
$$




USA.gov is the U.S. government's official web portal to all federal, state and local government web resources and services.